Location: ????????
(38.4362°N, 22.8767°E)
Time: 22:15:27
(UTC+00:00)

SINOD-D 3 - Visible Passes

Search period start: 19 September 2024 00:00
Search period end: 29 September 2024 00:00
Orbit: 486 x 743 km, 64.8° (Epoch: 18 September)

Date Brightness Start Highest point End Pass type
(mag) Time Alt. Az. Time Alt. Az. Time Alt. Az.
23 Sep ? 03:48:38 10° SSE 03:52:04 20° ESE 03:55:40 10° ENE visible
26 Sep ? 02:56:42 10° SSE 02:59:57 19° ESE 03:03:20 10° ENE visible
27 Sep ? 03:11:08 10° S 03:15:28 37° ESE 03:20:05 10° NE visible
28 Sep ? 03:26:26 10° SSW 03:31:09 76° ESE 03:36:14 10° NE visible
